• In Belarus
  • List of Countries
  • For 7 days
  • Water Temperature
  • Weather Map
  • Weather Widgets
  • user-avatar
    Login

    Hourly Weather Chichy

    Today, 1 June, Monday

    Time Temperature Precipitation Wind Pressure Humidity
    00:00 +10°C° 0 mm 2 mps 754 mmHg 86%
    01:00 +10°C° 0 mm 2 mps 754 mmHg 91%
    02:00 +9°C° 0 mm 2 mps 754 mmHg 91%
    03:00 +10°C° 0 mm 1 mps 754 mmHg 91%
    04:00 +9°C° 0 mm 1 mps 754 mmHg 92%
    05:00 +11°C° 0 mm 1 mps 754 mmHg 85%
    06:00 +13°C° 0 mm 2 mps 755 mmHg 79%
    07:00 +14°C° 0 mm 2 mps 755 mmHg 72%
    08:00 +16°C° 0 mm 2 mps 755 mmHg 66%
    09:00 +18°C° 0 mm 3 mps 755 mmHg 60%
    10:00 +20°C° 0 mm 3 mps 755 mmHg 53%
    11:00 +21°C° 0 mm 3 mps 755 mmHg 50%
    12:00 +21°C° 0 mm 4 mps 755 mmHg 46%
    13:00 +22°C° 0 mm 4 mps 755 mmHg 42%
    14:00 +22°C° 0 mm 4 mps 755 mmHg 42%
    15:00 +21°C° 0 mm 4 mps 755 mmHg 43%
    16:00 +21°C° 0 mm 5 mps 755 mmHg 43%
    17:00 +20°C° 0 mm 4 mps 755 mmHg 49%
    18:00 +19°C° 0 mm 3 mps 754 mmHg 56%
    19:00 +17°C° 0 mm 2 mps 754 mmHg 62%
    20:00 +16°C° 0 mm 1 mps 754 mmHg 66%
    21:00 +14°C° 0 mm 1 mps 754 mmHg 70%
    22:00 +13°C° 0 mm 1 mps 754 mmHg 73%
    23:00 +12°C° 0 mm 1 mps 754 mmHg 77%

    Tomorrow, 2 June, Tuesday

    Time Temperature Precipitation Wind Pressure Humidity
    00:00 +10°C° 0 mm 2 mps 754 mmHg 81%
    01:00 +10°C° 0 mm 2 mps 754 mmHg 86%
    02:00 +9°C° 0 mm 2 mps 754 mmHg 89%
    03:00 +9°C° 0 mm 2 mps 754 mmHg 92%
    04:00 +8°C° 0 mm 2 mps 753 mmHg 95%
    05:00 +10°C° 0 mm 2 mps 753 mmHg 86%
    06:00 +12°C° 0 mm 2 mps 753 mmHg 78%
    07:00 +14°C° 0 mm 2 mps 753 mmHg 69%
    08:00 +16°C° 0 mm 3 mps 753 mmHg 62%
    09:00 +17°C° 0 mm 4 mps 753 mmHg 55%
    10:00 +19°C° 0 mm 4 mps 753 mmHg 48%
    11:00 +20°C° 0 mm 4 mps 752 mmHg 46%
    12:00 +21°C° 0 mm 4 mps 752 mmHg 43%
    13:00 +21°C° 0 mm 4 mps 752 mmHg 41%
    14:00 +21°C° 0 mm 4 mps 751 mmHg 43%
    15:00 +21°C° 0 mm 3 mps 751 mmHg 46%
    16:00 +20°C° 0 mm 3 mps 750 mmHg 48%
    17:00 +19°C° 0 mm 3 mps 750 mmHg 54%
    18:00 +19°C° 0 mm 2 mps 750 mmHg 59%
    19:00 +18°C° 0 mm 2 mps 749 mmHg 65%
    20:00 +17°C° 0 mm 2 mps 749 mmHg 71%
    21:00 +16°C° 0 mm 2 mps 749 mmHg 77%
    22:00 +14°C° 0 mm 2 mps 749 mmHg 83%
    23:00 +14°C° 0 mm 1 mps 749 mmHg 85%

    Day after tomorrow, 3 June, Wednesday

    Time Temperature Precipitation Wind Pressure Humidity
    00:00 +13°C° 0 mm 1 mps 748 mmHg 86%
    01:00 +12°C° 0 mm 0 mps 748 mmHg 87%
    02:00 +12°C° 0 mm 1 mps 748 mmHg 89%
    03:00 +12°C° 0 mm 1 mps 747 mmHg 90%
    04:00 +11°C° 0 mm 1 mps 747 mmHg 92%
    05:00 +13°C° 0 mm 1 mps 747 mmHg 87%
    06:00 +14°C° 0 mm 2 mps 746 mmHg 81%
    07:00 +16°C° 0 mm 2 mps 746 mmHg 76%
    08:00 +16°C° 0.1 mm 2 mps 746 mmHg 74%
    09:00 +17°C° 0.1 mm 2 mps 746 mmHg 72%
    10:00 +17°C° 0.1 mm 2 mps 746 mmHg 70%
    11:00 +19°C° 0.4 mm 2 mps 745 mmHg 68%
    12:00 +20°C° 0.4 mm 2 mps 745 mmHg 65%
    13:00 +21°C° 0.4 mm 2 mps 745 mmHg 63%
    14:00 +20°C° 1.1 mm 2 mps 744 mmHg 65%
    15:00 +21°C° 1.1 mm 1 mps 744 mmHg 67%
    16:00 +21°C° 1.1 mm 1 mps 743 mmHg 69%
    17:00 +20°C° 0.4 mm 1 mps 743 mmHg 73%
    18:00 +19°C° 0.4 mm 1 mps 743 mmHg 76%
    19:00 +18°C° 0.4 mm 1 mps 742 mmHg 80%
    20:00 +16°C° 0 mm 2 mps 742 mmHg 82%
    21:00 +15°C° 0 mm 2 mps 742 mmHg 84%
    22:00 +13°C° 0 mm 2 mps 742 mmHg 86%
    23:00 +13°C° 0 mm 2 mps 742 mmHg 85%

    4 June, Thursday

    Time Temperature Precipitation Wind Pressure Humidity
    00:00 +12°C° 0 mm 2 mps 742 mmHg 85%
    01:00 +10°C° 0 mm 2 mps 741 mmHg 84%
    02:00 +10°C° 0 mm 2 mps 741 mmHg 85%
    03:00 +10°C° 0 mm 2 mps 741 mmHg 87%
    04:00 +9°C° 0 mm 2 mps 740 mmHg 88%
    05:00 +12°C° 0 mm 2 mps 740 mmHg 84%
    06:00 +13°C° 0 mm 3 mps 740 mmHg 80%
    07:00 +14°C° 0 mm 3 mps 739 mmHg 77%
    08:00 +17°C° 0 mm 4 mps 739 mmHg 69%
    09:00 +19°C° 0 mm 4 mps 739 mmHg 61%
    10:00 +21°C° 0 mm 4 mps 739 mmHg 54%
    11:00 +22°C° 0.1 mm 4 mps 738 mmHg 54%
    12:00 +22°C° 0.1 mm 4 mps 738 mmHg 54%
    13:00 +23°C° 0.1 mm 4 mps 737 mmHg 54%
    14:00 +22°C° 0.4 mm 3 mps 737 mmHg 58%
    15:00 +21°C° 0.4 mm 3 mps 736 mmHg 62%
    16:00 +21°C° 0.4 mm 3 mps 736 mmHg 67%
    17:00 +20°C° 0 mm 3 mps 736 mmHg 69%
    18:00 +19°C° 0 mm 4 mps 735 mmHg 72%
    19:00 +18°C° 0 mm 4 mps 735 mmHg 75%
    20:00 +18°C° 0.2 mm 3 mps 735 mmHg 78%
    21:00 +17°C° 0.2 mm 3 mps 735 mmHg 81%
    22:00 +17°C° 0.2 mm 2 mps 735 mmHg 83%
    23:00 +16°C° 0.6 mm 2 mps 734 mmHg 87%

    5 June, Friday

    Time Temperature Precipitation Wind Pressure Humidity
    00:00 +16°C° 0.6 mm 1 mps 734 mmHg 92%
    01:00 +15°C° 0.6 mm 1 mps 734 mmHg 96%
    02:00 +15°C° 0.4 mm 2 mps 734 mmHg 96%
    03:00 +14°C° 0.4 mm 3 mps 734 mmHg 96%
    04:00 +13°C° 0.4 mm 4 mps 734 mmHg 97%
    05:00 +13°C° 2.1 mm 4 mps 734 mmHg 96%
    06:00 +12°C° 2.1 mm 4 mps 734 mmHg 96%
    07:00 +12°C° 2.1 mm 4 mps 735 mmHg 96%
    08:00 +12°C° 0.9 mm 4 mps 735 mmHg 95%
    09:00 +10°C° 0.9 mm 5 mps 736 mmHg 95%
    10:00 +10°C° 0.9 mm 5 mps 736 mmHg 94%
    11:00 +10°C° 0.4 mm 5 mps 737 mmHg 93%
    12:00 +10°C° 0.4 mm 5 mps 737 mmHg 93%
    13:00 +10°C° 0.4 mm 4 mps 737 mmHg 92%
    14:00 +11°C° 0.2 mm 4 mps 738 mmHg 87%
    15:00 +12°C° 0.2 mm 4 mps 738 mmHg 83%
    16:00 +14°C° 0.2 mm 3 mps 739 mmHg 78%
    17:00 +13°C° 0 mm 3 mps 739 mmHg 76%
    18:00 +13°C° 0 mm 3 mps 739 mmHg 74%
    19:00 +14°C° 0 mm 2 mps 739 mmHg 71%
    20:00 +12°C° 0 mm 3 mps 740 mmHg 73%
    21:00 +12°C° 0 mm 3 mps 740 mmHg 75%
    22:00 +11°C° 0 mm 3 mps 740 mmHg 77%
    23:00 +10°C° 0 mm 3 mps 740 mmHg 78%

    6 June, Saturday

    Time Temperature Precipitation Wind Pressure Humidity
    00:00 +10°C° 0 mm 3 mps 740 mmHg 79%
    01:00 +9°C° 0 mm 3 mps 741 mmHg 80%
    02:00 +9°C° 0 mm 3 mps 741 mmHg 82%
    03:00 +8°C° 0 mm 3 mps 741 mmHg 85%
    04:00 +7°C° 0 mm 3 mps 741 mmHg 88%
    05:00 +9°C° 0 mm 3 mps 741 mmHg 80%
    06:00 +11°C° 0 mm 4 mps 741 mmHg 73%
    07:00 +13°C° 0 mm 4 mps 742 mmHg 66%
    08:00 +14°C° 0 mm 4 mps 742 mmHg 62%
    09:00 +16°C° 0 mm 5 mps 742 mmHg 59%
    10:00 +17°C° 0 mm 5 mps 742 mmHg 56%
    11:00 +17°C° 0.3 mm 5 mps 742 mmHg 57%
    12:00 +19°C° 0.3 mm 6 mps 742 mmHg 59%
    13:00 +19°C° 0.3 mm 6 mps 742 mmHg 61%
    14:00 +19°C° 0.1 mm 6 mps 742 mmHg 58%
    15:00 +20°C° 0.1 mm 6 mps 742 mmHg 56%
    16:00 +20°C° 0.1 mm 5 mps 742 mmHg 53%
    17:00 +19°C° 0.1 mm 4 mps 742 mmHg 59%
    18:00 +19°C° 0.1 mm 3 mps 742 mmHg 65%
    19:00 +18°C° 0.1 mm 3 mps 742 mmHg 70%
    20:00 +16°C° 0 mm 3 mps 743 mmHg 76%
    21:00 +14°C° 0 mm 3 mps 743 mmHg 81%
    22:00 +13°C° 0 mm 3 mps 744 mmHg 87%
    23:00 +12°C° 0 mm 3 mps 744 mmHg 88%
    Show more